Preview of NWS' New Version of Forecast
This preview is not operational and should not be used for support decisions.
Latest weather observations around

Philadelphia, Philadelphia International Airport (KPHL)

Using English Units (Switch to International System of Units)
Date/ Time (EDT) Wind (mph) Vis. (mi) Weather Sky Cond. Temp (°F) Rel. Humidity Wind Chill (°F) Heat Index (°F) Pressure Precip. (in)
Air Dwpt 6 hour Altimeter (inHg) Sea level (inHg) 1 hr 3 hr 6 hr
Max Min
Jun 18 08:54 SW 6 10 Mostly Cloudy FEW220 BKN300 77 69     77%   78 30.04 30.04      
Jun 18 07:54 S 3 7 Mostly Cloudy FEW220 BKN300 73 68     84%   74 30.05 30.05      
Jun 18 06:54 SW 5 7 Mostly Cloudy FEW220 BKN300 71 68     90%   72 30.07 30.06      
Jun 18 05:54 SSW 3 7 Cloudy FEW200 BKN240 OVC280 70 68     93%     30.07 30.07      
Jun 18 04:54 SSW 5 7 Mostly Cloudy FEW200 BKN280 70 68     93%     30.06 30.06      
Jun 18 04:24 SSW 3 7 Partly Cloudy FEW220 SCT280 70 68     93%     30.07        
Jun 18 03:54 S 6 10 Partly Cloudy FEW220 SCT280 70 67     90%     30.07 30.06      
Jun 18 02:54 S 3 10 Mostly Cloudy FEW220 BKN280 70 67     90%     30.07 30.07      
Jun 18 01:54 S 5 10 Mostly Cloudy BKN280 71 67     87%   72 30.07 30.07      
Jun 18 00:54 S 6 10 Mostly Cloudy BKN280 71 66     84%   72 30.08 30.08      
Jun 17 23:54 S 5 10 Partly Cloudy SCT280 73 65     76%   74 30.08 30.07      
Jun 17 22:54 SSW 6 10 Mostly Clear FEW280 75 64     69%   75 30.07 30.07      
Jun 17 21:54 SSW 6 10 Clear CLR 76 62     62%   76 30.08 30.08      
Jun 17 20:54 SSW 8 10 Mostly Cloudy FEW080 BKN250 79 61     54%   79 30.06 30.06      
Jun 17 19:54 S 11 10 Mostly Cloudy FEW080 BKN250 83 60     46%   83 30.05 30.05      
Jun 17 18:54 SW 9 10 Mostly Cloudy SCT060 BKN250 88 58     36%   87 30.04 30.04      
Jun 17 17:54 WSW 8 10 Mostly Cloudy SCT060 BKN250 89 57     34%   88 30.04 30.04      
Jun 17 16:54 WSW 8 10 Mostly Cloudy FEW060 BKN250 89 56     33%   87 30.05 30.04      
Jun 17 15:54 WSW 7 10 Mostly Cloudy FEW060 BKN250 89 56     33%   87 30.05 30.05      
Jun 17 14:54 3 10 Mostly Cloudy FEW060 BKN250 88 55     33%   86 30.06 30.06      
Jun 17 13:54 ESE 3 10 Mostly Cloudy FEW060 BKN250 88 59     38%   87 30.06 30.06      
Jun 17 12:54 3 10 Mostly Cloudy FEW060 BKN250 86 58     39%   85 30.08 30.08      
Jun 17 11:54 SE 5 10 Mostly Cloudy FEW090 BKN250 85 58     40%   84 30.1 30.09      
Jun 17 10:54 SSW 3 10 Mostly Cloudy FEW080 BKN250 82 55     40%   81 30.1 30.09      
Jun 17 09:54 SW 3 10 Mostly Cloudy FEW080 BKN250 78 64     62%   79 30.1 30.1      
Jun 17 08:54 Calm 10 Mostly Cloudy FEW080 BKN250 74 64     71%   74 30.1 30.09      
Jun 17 07:54 Calm 10 Mostly Cloudy BKN250 72 64     76%   72 30.08 30.08      
Jun 17 06:54 Calm 10 Partly Cloudy FEW090 SCT250 68 62     81%     30.07 30.06      
Jun 17 05:54 Calm 10 Partly Cloudy FEW080 SCT250 65 62     90%     30.06 30.06      
Jun 17 04:54 Calm 10 Partly Cloudy FEW160 SCT250 67 61     81%     30.05 30.04      
Jun 17 03:54 W 3 10 Partly Cloudy SCT250 68 60     76%     30.04 30.04      
Jun 17 02:54 S 3 10 Mostly Clear FEW250 68 60     76%     30.04 30.04      
Jun 17 01:54 S 3 10 Mostly Clear FEW250 68 60     76%     30.06 30.05      
Jun 17 00:54 Calm 10 Partly Cloudy SCT250 69 58     68%     30.06 30.05      
Jun 16 23:54 Calm 10 Mostly Cloudy BKN250 71 59     66%   71 30.05 30.05      
Jun 16 22:54 SW 6 10 Mostly Cloudy FEW150 BKN250 74 57     56%   74 30.04 30.04      
Jun 16 21:54 SSW 8 10 Mostly Cloudy SCT150 BKN250 76 57     52%   76 30.04 30.03      
Jun 16 20:54 SW 7 10 Mostly Cloudy FEW080 SCT150 BKN250 79 58     49%   79 30.01 30.01      
Jun 16 19:54 SW 9 10 Mostly Cloudy SCT070 SCT150 BKN250 81 56     42%   81 30 29.99      
Jun 16 18:54 SSW 8 10 Mostly Cloudy FEW080 SCT150 BKN250 82 55     40%   81 29.99 29.98      
Jun 16 17:54 SW 9 10 Mostly Cloudy FEW080 BKN250 84 52     33%   82 29.99 29.98      
Jun 16 16:54 SW 9 10 Partly Cloudy FEW080 SCT250 84 50     31%   82 29.99 29.98      
Jun 16 15:54 S 9 10 Partly Cloudy FEW080 SCT250 83 50     32%   81 30 30      
Jun 16 14:54 WSW 9 10 Partly Cloudy FEW080 SCT250 83 49     31%   81 30.01 30.01      
Jun 16 13:54 S 7 10 Mostly Cloudy FEW080 BKN250 81 49     33%   80 30.02 30.02      
Jun 16 12:54 5 10 Mostly Cloudy FEW080 BKN250 81 47     30%   80 30.04 30.03      
Jun 16 11:54 Calm 10 Mostly Cloudy FEW080 BKN250 79 49     35%   78 30.05 30.05      
Jun 16 10:54 Calm 10 Mostly Cloudy BKN250 78 47     33%   77 30.06 30.06      
Jun 16 09:54 NNE 5 10 Partly Cloudy SCT250 76 49     39%   75 30.07 30.07      
Jun 16 08:54 Calm 10 Mostly Clear FEW250 73 51     46%   72 30.08 30.08      
Jun 16 07:54 Calm 10 Mostly Clear FEW250 68 51     55%     30.07 30.07      
Jun 16 06:54 NW 6 10 Mostly Clear FEW250 64 49     58%     30.07 30.06      
Jun 16 05:54 WNW 5 10 Mostly Clear FEW250 64 51     63%     30.06 30.06      
Jun 16 04:54 Calm 10 Partly Cloudy SCT250 60 56     86%     30.05 30.05      
Jun 16 03:54 Calm 10 Clear CLR 61 57     87%     30.05 30.05      
Jun 16 02:54 Calm 10 Clear CLR 62 57     84%     30.04 30.04      
Jun 16 01:54 SE 5 10 Clear CLR 61 56     83%     30.03 30.03      
Jun 16 00:54 S 3 10 Clear CLR 64 57     78%     30.02 30.02      
Jun 15 23:54 S 5 10 Clear CLR 65 56     73%     30.01 30.01      
Jun 15 22:54 ESE 7 10 Clear CLR 66 53     63%     30 30      
Jun 15 21:54 N 7 10 Mostly Clear FEW080 74 45     36%   73 29.98 29.98      
Jun 15 20:54 NNW 8 10 Partly Cloudy SCT085 75 45     34%   74 29.97 29.97      
Jun 15 19:54 N 9 10 Partly Cloudy SCT080 77 44     31%   76 29.96 29.96      
Jun 15 18:54 N 10 10 Partly Cloudy SCT085 78 45     31%   77 29.95 29.95      
Jun 15 17:54 N 13 10 Partly Cloudy SCT080 79 47     32%   78 29.95 29.95      
Jun 15 16:54 N 8 10 Partly Cloudy SCT075 78 47     33%   77 29.95 29.95      
Jun 15 15:54 NW 14 10 Partly Cloudy SCT075 79 47     32%   78 29.96 29.96      
Jun 15 14:54 7 10 Mostly Clear FEW065 FEW280 77 48     36%   76 29.96 29.95      
Jun 15 13:54 6 10 Mostly Clear FEW060 FEW280 76 49     39%   75 29.96 29.95      
Jun 15 12:54 NNW 15 10 Mostly Clear FEW055 FEW280 75 48     38%   74 29.96 29.96      
Jun 15 11:54 NNW 14 10 Mostly Clear FEW050 FEW280 74 48     40%   73 29.97 29.96      
Jun 15 10:54 N 17 10 Mostly Clear FEW050 FEW280 73 48     41%   72 29.97 29.97      
Jun 15 09:54 N 15 10 Mostly Clear FEW050 FEW280 72 50     46%   71 29.97 29.96      
Jun 15 08:54 NW 10 10 Mostly Clear FEW250 FEW330 70 47     44%     29.97 29.96      
Jun 15 07:54 NW 9 10 Partly Cloudy FEW250 SCT330 69 48     47%     29.97 29.96      
May 14 16:54 SSW 9 10 Partly Cloudy FEW025 SCT230 73 62     68%   73 29.96 29.95      
May 14 12:54 3 7 Cloudy OVC014 64 57     78%     30.03 30.02      
May 13 16:54 SSE 6 10 Cloudy FEW007 OVC010 56 53     90%     30.1 30.1   0  
May 13 11:54 E 10 9 Cloudy OVC009 55 52     89%     30.15 30.15      
May 13 01:54 ENE 9 5 Fog/Mist OVC009 57 55     93%     30.1 30.09     1
May 12 11:15 6 9 Cloudy OVC010 61 56     83%     30.11        
May 12 09:54 E 6 10 Cloudy OVC009 59 56     90%     30.11 30.11      
May 12 07:54 ENE 14 6 Fog/Mist BKN008 OVC012 55 53     93%     30.11 30.11     1
May 12 05:54   3 Thunderstorms and Rain and Fog/Mist FEW018 BKN032 OVC046 54 52     93%     30.1 30.1 0    
May 12 03:51   4 Heavy Rain SCT035 OVC055 57 50     77%     30.15   0    
May 12 02:54 NNE 9 10 Cloudy BKN060 OVC100 60 46     60%     30.1 30.09      
May 12 00:54 E 5 10 Cloudy FEW041 BKN075 OVC095 60 46     60%     30.11 30.11 0    
May 11 15:54 3 10 Partly Cloudy FEW070 FEW100 SCT260 76 43     31%   75 30.01 30.01      
May 11 12:54 WNW 13 10 Partly Cloudy SCT055 SCT250 74 49     41%   73 30.01 30.01      
Jun 10 21:54 SSW 6 10 Mostly Clear FEW070 78 58     50%   78 30.05 30.04      
Jun 10 15:54   10 Mostly Clear FEW065 87 53     31%   85 29.99 29.99      
Jun 10 11:54 SW 9 10 Mostly Clear FEW150 FEW280 82 55     40%   81 30.03 30.03      
Jun 10 08:54 WSW 6 10 Mostly Cloudy FEW060 BKN120 BKN280 73 56     55%   73 30.03 30.03      
Jun 08 08:54 6 10 Clear   64 51     63%     30.01 30.01      
Jun 07 16:54 ENE 5 10 Cloudy OVC047 65 48     54%     30.02 30.01      
Jun 07 09:37 ENE 9 10 Cloudy BKN023 OVC040 57 47     69%     30.01        
Jun 06 06:32 NE 8 2 Rain and Fog/Mist SCT004 BKN012 OVC031 61 59     93%     29.7   0